Regional Weather Roundup
Issued by NWS

Home | Current Version | Previous Version | Graphics & Text | Print | Product List | Glossary Off
Versions: 1 2 3 4 5 6 7 8 9 10 11 12 13 14 15 16 17 18 19 20 21 22 23 24 25 26 27 28 29 30 31 32 33 34 35 36 37 38 39 40 41 42 43 44 45 46 47 48 49 50

000
ASUS43 KLSX 231207
RWRMO

WEATHER SUMMARY FOR MISSOURI
NATIONAL WEATHER SERVICE SPRINGFIELD MO
700 AM CDT SAT AUG 23 2014

NOTE: "FAIR" INDICATES FEW OR NO CLOUDS BELOW 12,000 FEET WITH NO
       SIGNIFICANT WEATHER AND/OR OBSTRUCTIONS TO VISIBILITY.
       CURRENT SKY AND/OR WEATHER CONDITIONS ARE NOT AVAILABLE FOR
       CHILLICOTHE AND FARMINGTON.

MOZ001>031-035>038-043-044-053-054-231300-
...NORTHERN AND WESTERN MISSOURI...

CITY           SKY/WX    TMP DP  RH WIND       PRES   REMARKS
KANSAS CTY INT MOCLDY    79  67  66 SW9       29.90R
6HR MIN TEMP:  77; 6HR MAX TEMP:  81;

KANSAS C DTWN  MOCLDY    80  68  66 S9        29.89R
6HR MIN TEMP:  80; 6HR MAX TEMP:  82;

LEE`S SUMMIT   PTCLDY    77  70  79 S7        29.92S
6HR MIN TEMP:  76; 6HR MAX TEMP:  79;

ST JOSEPH      CLOUDY    74  72  93 CALM      29.90S
6HR MIN TEMP:  74; 6HR MAX TEMP:  80;

CHILLICOTHE      N/A     80  72  76 VRB5      29.93R
6HR MIN TEMP:  79; 6HR MAX TEMP:  81;

KIRKSVILLE     PTCLDY    77  75  93 S5        29.95R FOG
6HR MIN TEMP:  76; 6HR MAX TEMP:  78;


$$
MOZ066>068-077>081-088>096-101>105-231300-
...SOUTHWEST MISSOURI...

CITY           SKY/WX    TMP DP  RH WIND       PRES   REMARKS
SPRINGFIELD    CLEAR     75  71  87 S8        30.00R
6HR MIN TEMP:  74; 6HR MAX TEMP:  80;

JOPLIN         MOCLDY    79  69  71 S13       29.97R
6HR MIN TEMP:  78; 6HR MAX TEMP:  82;


$$
MOZ032>034-039>042-045>050-055>058-069>072-231300-
...CENTRAL MISSOURI...

CITY           SKY/WX    TMP DP  RH WIND       PRES   REMARKS
COLUMBIA       CLEAR     77  72  84 S3        29.97R
6HR MIN TEMP:  74; 6HR MAX TEMP:  80;

JEFFERSON CITY CLEAR     77  71  82 E3        29.95R
6HR MIN TEMP:  75; 6HR MAX TEMP:  79;

ROLLA          CLEAR     74  70  87 SW7       29.98S
6HR MIN TEMP:  73; 6HR MAX TEMP:  78;

SEDALIA        PTCLDY    79  70  74 SW10      29.95S
6HR MIN TEMP:  76; 6HR MAX TEMP:  79;

WHITEMAN AFB   CLEAR     75  53  46 S8        29.94R
OSAGE BEACH    CLEAR     73  70  88 CALM      29.97S

$$
MOZ051-052-059>065-231300-
...EAST CENTRAL MISSOURI...

CITY           SKY/WX    TMP DP  RH WIND       PRES   REMARKS
ST LOUIS INTL  PTCLDY    81  73  76 CALM      29.94R
6HR MIN TEMP:  80; 6HR MAX TEMP:  83;

SPIRIT OF STL  PTCLDY    75  73  93 CALM      29.93R
6HR MIN TEMP:  73; 6HR MAX TEMP:  78;

ST CHARLES     FOG       75  73  93 CALM      29.93R VSB 1/2
6HR MIN TEMP:  75; 6HR MAX TEMP:  78;


$$
MOZ072>076-082>087-097>100-106>115-231300-
...SOUTH CENTRAL AND SOUTHEAST MISSOURI...

CITY           SKY/WX    TMP DP  RH WIND       PRES   REMARKS
CAPE GIRARDEAU PTCLDY    76  74  93 CALM      29.96S
6HR MIN TEMP:  74; 6HR MAX TEMP:  81;

FARMINGTON     CLEAR     79  72  78 W5        30.00S
6HR MIN TEMP:  75; 6HR MAX TEMP:  79;

POPLAR BLUFF   CLEAR     76  72  87 SW3       29.97R FOG
6HR MIN TEMP:  75; 6HR MAX TEMP:  78;

WEST PLAINS    PTCLDY    74  71  91 SW3       30.03S
6HR MIN TEMP:  74; 6HR MAX TEMP:  78;


$$



USA.gov is the U.S. government's official web portal to all federal, state and local government web resources and services.